User: anonymous   Login
Location: Melbourne
(37.8170°S, 144.9670°E)
Time: 19:10:07
(UTC+11:00)
Language:

ISS - Orbit

View from above orbital plane
View from above orbital plane
View from above satellite
View from above satellite

Ground track
Ground track

The orbit data is extracted from the following two-line orbital elements,

1 25544U 98067A   16038.90574315  .00010255  00000-0  15975-3 0  9995
2 25544  51.6448 347.7333 0006934  92.9813   9.9319 15.54494719984713
Epoch (UTC): 07 February 2016 21:44:16
Eccentricity: 0.0006934
inclination: 51.6448°
perigee height: 399 km
apogee height: 408 km
right ascension of ascending node: 347.7333°
argument of perigee: 92.9813°
revolutions per day: 15.54494719
mean anomaly at epoch: 9.9319°
orbit number at epoch: 98471

The dashed part of the orbit path shows where the satellite is in the earth's shadow,  

DLR